Simultaneous Nadir Overpasses (SNOs) Predictions

Prediction of SNOs between METOP-C and LANDSAT-8 Satellite Orbit:

Table of predicted SNOs for the next 14.0 days since TLE Epoch: 5/25/2024
Index Date (METOP-C) Time (METOP-C) Lat,Lon (METOP-C) SZA (METOP-C ) Date (LANDSAT-8) Time (LANDSAT-8) Lat,Lon (LANDSAT-8) SZA (LANDSAT-8 ) Distance(km) Time Diff (sec)
1 05/25/2024 10:10:09 81.00, 64.53 61.90 05/25/2024 10:11:15 81.00, 64.60 61.93 1.26 66
2 05/25/2024 11:00:46 -81.05,-126.94 117.95 05/25/2024 11:00:40 -81.05,-127.11 117.98 2.96 6
3 05/28/2024 05:44:32 81.03, 131.49 61.50 05/28/2024 05:45:29 81.02, 131.36 61.51 2.32 57
4 05/28/2024 06:35:11 -81.05, -60.67 118.44 05/28/2024 06:34:55 -81.05, -60.68 118.45 0.18 16
5 05/31/2024 01:18:56 81.03,-162.03 61.08 05/31/2024 01:19:43 81.03,-162.16 61.09 2.33 47
6 05/31/2024 02:09:35 -81.05, 5.86 118.85 05/31/2024 02:09:09 -81.05, 5.82 118.87 0.65 26
7 06/02/2024 20:53:20 81.01, -96.04 60.65 06/02/2024 20:53:56 81.01, -95.97 60.67 1.22 36
8 06/02/2024 21:43:59 -81.04, 71.90 119.28 06/02/2024 21:43:22 -81.04, 72.04 119.28 2.30 37
9 06/05/2024 16:27:43 81.02, -29.43 60.35 06/05/2024 16:28:08 81.02, -29.35 60.37 1.32 25



Historial Predications of SNOs between METOP-C and LANDSAT-8
